,,PA_Meas_PMT16A,,PR_Meas_QMR101_102,,RH_Meas_QMH101,,SR_Meas_QMS101,,TA_Meas_QMH101,,GenWind,,GenWind,
time,status,PA,status,PR,status,RH,status,SR,status,TA,status,DirAvg,status,SpdAvg,
2016-11-06, 14:01:04,VALID,918.234,VALID,0,INVALID,121.029,VALID,182.65,VALID,19.8813,VALID,128,VALID,1.17539,
2016-11-06, 14:02:04,VALID,918.246,VALID,0,INVALID,120.641,VALID,187.377,VALID,19.9578,VALID,128,VALID,1.26992,
2016-11-06, 14:03:04,VALID,918.292,VALID,0,INVALID,120.435,VALID,191.568,VALID,20.1349,VALID,140,VALID,0.95625,
2016-11-06, 14:04:04,VALID,918.316,VALID,0,INVALID,120.008,VALID,195.221,VALID,20.2714,VALID,141,VALID,0.873438,
2016-11-06, 14:05:04,VALID,918.31,VALID,0,INVALID,118.933,VALID,197.799,VALID,20.3885,VALID,136,VALID,1.04648,
2016-11-06, 14:06:04,VALID,918.328,VALID,0,INVALID,118.254,VALID,200.808,VALID,20.543,VALID,136,VALID,0.0558594,
2016-11-06, 14:07:04,VALID,918.327,VALID,0,INVALID,118.819,VALID,204.031,VALID,20.7787,VALID,139,VALID,0,
2016-11-06, 14:08:04,VALID,918.304,VALID,0,INVALID,117.805,VALID,206.609,VALID,20.8372,VALID,174,VALID,0.966406,
2016-11-06, 14:09:04,VALID,918.312,VALID,0,INVALID,118.064,VALID,209.51,VALID,20.9722,VALID,156,VALID,0.2375,
2016-11-06, 14:10:04,VALID,918.32,VALID,0,INVALID,110.852,VALID,212.841,VALID,20.9511,VALID,149,VALID,0,
2016-11-06, 14:11:04,VALID,918.303,VALID,0,INVALID,111.195,VALID,173.517,VALID,20.9511,VALID,149,VALID,0,
2016-11-06, 14:14:04,VALID,918.382,VALID,0,VALID,104,VALID,167.286,VALID,21.1087,VALID,160,VALID,0,
2016-11-06, 14:15:04,VALID,918.414,VALID,0,INVALID,112.544,VALID,180.716,VALID,21.1884,VALID,163,VALID,0,
2016-11-06, 14:16:04,VALID,918.416,VALID,0,INVALID,110.227,VALID,190.063,VALID,21.2648,VALID,159,VALID,0,
2016-11-06, 14:20:04,VALID,918.452,VALID,0,VALID,103.32,VALID,172.55,VALID,21.3608,VALID,157,VALID,0,
2016-11-06, 14:21:04,VALID,918.491,VALID,0,VALID,104,VALID,239.809,VALID,21.4014,VALID,156,VALID,0,
2016-11-06, 14:22:04,VALID,918.509,VALID,0,VALID,102.558,VALID,228.312,VALID,21.4388,VALID,164,VALID,0,
2016-11-06, 14:23:04,VALID,918.508,VALID,0,INVALID,110.616,VALID,207.039,VALID,21.5168,VALID,160,VALID,0,
2016-11-06, 14:24:04,VALID,918.56,VALID,0,INVALID,110.852,VALID,252.057,VALID,21.712,VALID,162,VALID,0,
2016-11-06, 14:25:04,VALID,918.591,VALID,0,VALID,90.0478,VALID,212.841,VALID,21.8469,VALID,178,VALID,0,
2016-11-06, 14:27:04,VALID,918.669,VALID,0,VALID,88.9576,VALID,210.477,VALID,22.0437,VALID,196,VALID,0,
2016-11-06, 14:37:04,VALID,918.673,VALID,0,INVALID,116.303,VALID,239.486,VALID,21.4778,VALID,291,VALID,0,
2016-11-06, 14:38:04,VALID,918.719,VALID,0,INVALID,116.722,VALID,251.52,VALID,21.5168,VALID,322,VALID,0,
2016-11-06, 14:39:04,VALID,918.737,VALID,0,INVALID,116.478,VALID,284.289,VALID,21.5949,VALID,24,VALID,0,
2016-11-06, 14:40:04,VALID,918.748,VALID,0,INVALID,115.457,VALID,286.76,VALID,21.5575,VALID,14,VALID,0,
2016-11-06, 14:41:04,VALID,918.74,VALID,0,INVALID,116.539,VALID,290.736,VALID,21.5168,VALID,43,VALID,0,
2016-11-06, 14:42:04,VALID,918.764,VALID,0,INVALID,117.454,VALID,294.066,VALID,21.5168,VALID,37,VALID,0,
2016-11-06, 14:43:04,VALID,918.778,VALID,0,INVALID,118.171,VALID,259.9,VALID,21.5363,VALID,44,VALID,0,
2016-11-06, 14:44:04,VALID,918.758,VALID,0,INVALID,117.713,VALID,290.413,VALID,21.5542,VALID,62,VALID,0,
2016-11-06, 14:45:04,VALID,918.744,VALID,0,INVALID,118.087,VALID,296.86,VALID,21.6144,VALID,64,VALID,0,
2016-11-06, 14:46:04,VALID,918.747,VALID,0,INVALID,117.347,VALID,306.422,VALID,21.6518,VALID,65,VALID,0,
2016-11-06, 14:47:04,VALID,918.737,VALID,0,INVALID,115.884,VALID,308.678,VALID,21.6713,VALID,77,VALID,0,
2016-11-06, 14:48:04,VALID,918.71,VALID,0,INVALID,116.715,VALID,312.546,VALID,21.6518,VALID,85,VALID,0,
2016-11-06, 14:49:04,VALID,918.698,VALID,0,INVALID,116.6,VALID,318.993,VALID,21.6729,VALID,93,VALID,1.04336,
2016-11-06, 14:50:04,VALID,918.687,VALID,0,INVALID,116.814,VALID,324.58,VALID,21.6713,VALID,75,VALID,1.15391,
2016-11-06, 14:51:04,VALID,918.686,VALID,0,INVALID,117.035,VALID,326.084,VALID,21.7688,VALID,92,VALID,1.26211,
2016-11-06, 14:52:04,VALID,918.707,VALID,0,INVALID,116.882,VALID,333.712,VALID,21.8079,VALID,73,VALID,1.39336,
2016-11-06, 14:53:04,VALID,918.708,VALID,0,INVALID,117.103,VALID,334.787,VALID,21.9249,VALID,66,VALID,1.70625,
2016-11-06, 14:54:04,VALID,918.739,VALID,0,INVALID,115.754,VALID,339.729,VALID,21.9835,VALID,50,VALID,1.47187,
2016-11-06, 14:55:04,VALID,918.739,VALID,0,INVALID,114.176,VALID,346.068,VALID,22.1396,VALID,44,VALID,1.26992,
2016-11-06, 14:56:04,VALID,918.764,VALID,0,INVALID,110.791,VALID,347.357,VALID,22.333,VALID,59,VALID,1.39961,
2016-11-06, 14:57:04,VALID,918.769,VALID,0,VALID,85.2298,VALID,347.572,VALID,22.4111,VALID,127,VALID,1.8043,
2016-11-06, 14:58:04,VALID,918.764,VALID,0,VALID,84.719,VALID,355.738,VALID,22.4323,VALID,104,VALID,1.66445,
2016-11-06, 14:59:04,VALID,918.78,VALID,0,VALID,84.902,VALID,359.283,VALID,22.5086,VALID,106,VALID,0,
2016-11-06, 15:00:04,VALID,918.775,VALID,0,VALID,85.2832,VALID,364.44,VALID,22.3364,VALID,83,VALID,0,
2016-11-06, 15:01:04,VALID,918.821,VALID,0,VALID,86.6859,VALID,369.49,VALID,22.3347,VALID,84,VALID,0,
2016-11-06, 15:02:04,VALID,918.815,VALID,0,VALID,88.0505,VALID,375.614,VALID,22.3754,VALID,75,VALID,0,
2016-11-06, 15:03:04,VALID,918.849,VALID,0,VALID,84.6962,VALID,379.59,VALID,22.3933,VALID,125,VALID,0,
2016-11-06, 15:04:04,VALID,918.846,VALID,0,VALID,84.4674,VALID,388.4,VALID,22.4908,VALID,120,VALID,0,
2016-11-06, 15:05:04,VALID,918.854,VALID,0,VALID,84.9401,VALID,394.416,VALID,22.5884,VALID,127,VALID,0,
2016-11-06, 15:06:04,VALID,918.874,VALID,0,VALID,84.1168,VALID,403.979,VALID,22.7836,VALID,132,VALID,0,
2016-11-06, 15:07:04,VALID,918.875,VALID,0,VALID,84.4217,VALID,412.359,VALID,22.9592,VALID,131,VALID,0,
2016-11-06, 15:08:04,VALID,918.873,VALID,0,VALID,84.1549,VALID,411.929,VALID,23.0763,VALID,108,VALID,0,
2016-11-06, 15:09:04,VALID,918.865,VALID,0,VALID,82.4854,VALID,420.31,VALID,23.252,VALID,110,VALID,0,
2016-11-06, 15:10:04,VALID,918.866,VALID,0,VALID,82.249,VALID,424.285,VALID,23.3674,VALID,354,VALID,0,
2016-11-06, 15:11:04,VALID,918.865,VALID,0,VALID,83.2629,VALID,428.368,VALID,23.6016,VALID,31,VALID,0,
2016-11-06, 15:12:04,VALID,918.842,VALID,0,VALID,79.253,VALID,432.451,VALID,23.6797,VALID,100,VALID,0,
2016-11-06, 15:13:04,VALID,918.84,VALID,0,VALID,80.1983,VALID,439.972,VALID,23.6406,VALID,101,VALID,0,
2016-11-06, 15:14:04,VALID,918.822,VALID,0,VALID,79.84,VALID,445.129,VALID,23.8163,VALID,101,VALID,0,
2016-11-06, 15:15:04,VALID,918.791,VALID,0,VALID,79.2759,VALID,435.781,VALID,24.1287,VALID,91,VALID,0,
2016-11-06, 15:16:04,VALID,918.789,VALID,0,VALID,79.1158,VALID,307.711,VALID,24.1482,VALID,53,VALID,0,
2016-11-06, 15:17:04,VALID,918.815,VALID,0,VALID,77.3548,VALID,458.881,VALID,24.0292,VALID,106,VALID,0,
2016-11-06, 15:18:04,VALID,918.82,VALID,0,VALID,78.4983,VALID,457.162,VALID,23.953,VALID,97,VALID,0,
2016-11-06, 15:20:04,VALID,918.772,VALID,0,VALID,80.3432,VALID,458.129,VALID,24.0115,VALID,60,VALID,0,
2016-11-06, 15:21:04,VALID,918.803,VALID,0,VALID,79.5275,VALID,445.344,VALID,24.1677,VALID,57,VALID,0.00429688,
2016-11-06, 15:22:04,VALID,918.787,VALID,0,VALID,81.6849,VALID,366.052,VALID,24.2068,VALID,54,VALID,0.0015625,
2016-11-06, 15:23:04,VALID,918.802,VALID,0,VALID,78.0257,VALID,493.692,VALID,24.2068,VALID,66,VALID,0.00664063,
2016-11-06, 15:24:04,VALID,918.751,VALID,0,VALID,80.5795,VALID,476.072,VALID,24.2263,VALID,91,VALID,0,
2016-11-06, 15:25:04,VALID,918.782,VALID,0,VALID,77.5683,VALID,445.666,VALID,24.2654,VALID,111,VALID,0,
2016-11-06, 15:26:04,VALID,918.791,VALID,0,VALID,78.6127,VALID,506.478,VALID,24.1854,VALID,118,VALID,0,
2016-11-06, 15:27:04,VALID,918.796,VALID,0,VALID,78.7423,VALID,520.875,VALID,24.3026,VALID,32,VALID,0.167187,
2016-11-06, 15:28:04,VALID,918.811,VALID,0,VALID,78.2696,VALID,533.875,VALID,24.3221,VALID,20,VALID,0,
2016-11-06, 15:29:04,VALID,918.805,VALID,0,VALID,77.6521,VALID,539.355,VALID,24.3221,VALID,16,VALID,0,
2016-11-06, 15:30:04,VALID,918.836,VALID,0,VALID,77.8046,VALID,516.47,VALID,24.4978,VALID,349,VALID,0,
2016-11-06, 15:31:04,VALID,918.809,VALID,0,VALID,74.7323,VALID,508.089,VALID,24.5564,VALID,354,VALID,0,
2016-11-06, 15:32:04,VALID,918.831,VALID,0,VALID,75.8987,VALID,506.155,VALID,24.5954,VALID,321,VALID,0,
2016-11-06, 15:33:04,VALID,918.854,VALID,0,VALID,75.2355,VALID,506.263,VALID,24.5954,VALID,56,VALID,0,
2016-11-06, 15:34:04,VALID,918.848,VALID,0,VALID,75.853,VALID,566.967,VALID,24.5954,VALID,59,VALID,0,
2016-11-06, 15:35:04,VALID,918.838,VALID,0,VALID,72.8341,VALID,540.644,VALID,25.0836,VALID,297,VALID,0,
2016-11-06, 15:36:04,VALID,918.843,VALID,0,VALID,73.2991,VALID,534.842,VALID,25.1226,VALID,295,VALID,0,
2016-11-06, 15:37:04,VALID,918.814,VALID,0,VALID,73.1695,VALID,549.561,VALID,25.1617,VALID,237,VALID,0,
2016-11-06, 15:38:04,VALID,918.809,VALID,0,VALID,70.2193,VALID,422.244,VALID,25.1812,VALID,175,VALID,0,
2016-11-06, 15:39:04,VALID,918.813,VALID,0,VALID,68.7861,VALID,528.718,VALID,25.1793,VALID,148,VALID,0,
2016-11-06, 15:40:04,VALID,918.809,VALID,0,VALID,71.2027,VALID,560.735,VALID,25.0817,VALID,138,VALID,0,
2016-11-06, 15:41:04,VALID,918.834,VALID,0,VALID,69.9372,VALID,551.066,VALID,25.1207,VALID,168,VALID,0.544531,
2016-11-06, 15:42:04,VALID,918.825,VALID,0,VALID,67.3529,VALID,548.487,VALID,25.1793,VALID,167,VALID,0,
2016-11-06, 15:43:04,VALID,918.807,VALID,0,VALID,64.9591,VALID,561.058,VALID,25.2398,VALID,219,VALID,0,
2016-11-06, 15:44:04,VALID,918.779,VALID,0,VALID,64.6694,VALID,555.686,VALID,25.396,VALID,182,VALID,0,
2016-11-06, 15:45:04,VALID,918.776,VALID,0,VALID,63.2972,VALID,567.397,VALID,25.5132,VALID,154,VALID,0.569531,
2016-11-06, 15:46:04,VALID,918.771,VALID,0,VALID,64.5398,VALID,575.67,VALID,25.355,VALID,155,VALID,0,
2016-11-06, 15:47:04,VALID,918.774,VALID,0,VALID,64.0672,VALID,559.016,VALID,25.5327,VALID,165,VALID,0.0933594,
2016-11-06, 15:48:04,VALID,918.816,VALID,0,VALID,64.6161,VALID,544.727,VALID,25.4722,VALID,162,VALID,0,
2016-11-06, 15:49:04,VALID,918.808,VALID,0,VALID,68.4278,VALID,534.735,VALID,25.4722,VALID,184,VALID,0.0109375,
2016-11-06, 15:50:04,VALID,918.802,VALID,0,VALID,66.2932,VALID,582.868,VALID,25.5894,VALID,177,VALID,0,
2016-11-06, 15:51:04,VALID,918.794,VALID,0,VALID,64.578,VALID,584.265,VALID,25.7456,VALID,139,VALID,0.245312,
2016-11-06, 15:52:04,VALID,918.797,VALID,0,VALID,65.0659,VALID,580.827,VALID,25.7456,VALID,154,VALID,0,
2016-11-06, 15:53:04,VALID,918.77,VALID,0,VALID,65.7901,VALID,578.463,VALID,25.9019,VALID,181,VALID,0.434375,
2016-11-06, 15:54:04,VALID,918.777,VALID,0,VALID,64.0977,VALID,578.463,VALID,26.0776,VALID,189,VALID,0,
2016-11-06, 15:55:04,VALID,918.776,VALID,0,VALID,62.6492,VALID,578.785,VALID,26.0972,VALID,165,VALID,0.859375,
2016-11-06, 15:56:04,VALID,918.737,VALID,0,VALID,63.6936,VALID,574.703,VALID,26.019,VALID,192,VALID,0.754297,
2016-11-06, 15:57:04,VALID,918.756,VALID,0,VALID,64.5093,VALID,570.405,VALID,25.9604,VALID,197,VALID,0.0289063,
2016-11-06, 15:58:04,VALID,918.719,VALID,0,VALID,64.2044,VALID,566.859,VALID,26.0561,VALID,194,VALID,0.719141,
2016-11-06, 15:59:04,VALID,918.707,VALID,0,VALID,62.1385,VALID,564.388,VALID,26.1342,VALID,181,VALID,1.46445,
2016-11-06, 16:00:04,VALID,918.685,VALID,0,VALID,63.1371,VALID,565.678,VALID,26.2124,VALID,175,VALID,1.29609,
2016-11-06, 16:01:04,VALID,918.656,VALID,0,VALID,61.9098,VALID,570.62,VALID,26.31,VALID,194,VALID,0,
2016-11-06, 16:02:04,VALID,918.687,VALID,0,VALID,62.047,VALID,562.669,VALID,26.5054,VALID,162,VALID,0.560156,
2016-11-06, 16:03:04,VALID,918.699,VALID,0,VALID,62.0394,VALID,565.57,VALID,26.3296,VALID,157,VALID,1.36836,
2016-11-06, 16:04:04,VALID,918.667,VALID,0,VALID,62.8246,VALID,575.777,VALID,26.1733,VALID,179,VALID,1.03359,
2016-11-06, 16:05:04,VALID,918.658,VALID,0,VALID,65.2488,VALID,582.868,VALID,26.0952,VALID,178,VALID,0.309375,
2016-11-06, 16:06:04,VALID,918.641,VALID,0,VALID,65.9654,VALID,588.24,VALID,26.2124,VALID,164,VALID,0.000390625,
2016-11-06, 16:07:04,VALID,918.646,VALID,0,VALID,64.1587,VALID,589.53,VALID,26.2905,VALID,139,VALID,0.667969,
2016-11-06, 16:08:04,VALID,918.659,VALID,0,VALID,62.634,VALID,598.555,VALID,26.2319,VALID,150,VALID,0.689062,
2016-11-06, 16:09:04,VALID,918.649,VALID,0,VALID,62.3824,VALID,597.48,VALID,26.1342,VALID,157,VALID,1.98945,
2016-11-06, 16:10:04,VALID,918.638,VALID,0,VALID,60.9721,VALID,600.918,VALID,26.0151,VALID,168,VALID,0.460156,
2016-11-06, 16:11:04,VALID,918.628,VALID,0,VALID,63.8309,VALID,595.331,VALID,26.0757,VALID,158,VALID,0.0269531,
2016-11-06, 16:12:04,VALID,918.645,VALID,0,VALID,64.4636,VALID,590.604,VALID,26.1518,VALID,168,VALID,1.23594,
2016-11-06, 16:13:04,VALID,918.631,VALID,0,VALID,64.6389,VALID,492.833,VALID,26.1323,VALID,190,VALID,0.993359,
2016-11-06, 16:14:04,VALID,918.66,VALID,0,VALID,64.0519,VALID,387.325,VALID,26.2104,VALID,164,VALID,1.09805,
2016-11-06, 16:15:04,VALID,918.666,VALID,0,VALID,62.6569,VALID,341.555,VALID,26.1518,VALID,145,VALID,0,
2016-11-06, 16:16:04,VALID,918.673,VALID,0,VALID,64.6466,VALID,363.903,VALID,26.1733,VALID,128,VALID,1.06211,
2016-11-06, 16:17:04,VALID,918.686,VALID,0,VALID,66.2856,VALID,410.64,VALID,25.9389,VALID,123,VALID,0.00585938,
2016-11-06, 16:18:04,VALID,918.674,VALID,0,VALID,67.3681,VALID,473.815,VALID,25.8608,VALID,124,VALID,0.0605469,
2016-11-06, 16:19:04,VALID,918.698,VALID,0,VALID,67.1852,VALID,549.132,VALID,25.8608,VALID,165,VALID,0.881641,
2016-11-06, 16:20:04,VALID,918.678,VALID,0,VALID,65.973,VALID,592.001,VALID,25.7046,VALID,137,VALID,1.63398,
2016-11-06, 16:21:04,VALID,918.656,VALID,0,VALID,68.0009,VALID,616.927,VALID,25.6655,VALID,164,VALID,0.0261719,
2016-11-06, 16:22:04,VALID,918.667,VALID,0,VALID,66.865,VALID,631.861,VALID,25.8413,VALID,119,VALID,0,
2016-11-06, 16:23:04,VALID,918.662,VALID,0,VALID,66.0112,VALID,650.234,VALID,26.0757,VALID,187,VALID,0.00078125,
2016-11-06, 16:24:04,VALID,918.686,VALID,0,VALID,65.6452,VALID,665.813,VALID,26.3686,VALID,198,VALID,0,
2016-11-06, 16:25:04,VALID,918.674,VALID,0,VALID,63.5107,VALID,684.937,VALID,26.6205,VALID,166,VALID,0.0015625,
2016-11-06, 16:26:04,VALID,918.684,VALID,0,VALID,63.3048,VALID,674.73,VALID,26.7963,VALID,117,VALID,0,
2016-11-06, 16:27:04,VALID,918.678,VALID,0,VALID,62.5349,VALID,698.797,VALID,27.1109,VALID,115,VALID,0,
2016-11-06, 16:28:04,VALID,918.696,VALID,0,VALID,62.2452,VALID,723.079,VALID,27.2086,VALID,29,VALID,0.00585938,
2016-11-06, 16:29:04,VALID,918.685,VALID,0,VALID,64.8372,VALID,587.703,VALID,27.2261,VALID,26,VALID,0,
2016-11-06, 16:30:04,VALID,918.673,VALID,0,VALID,63.8232,VALID,576.422,VALID,27.2477,VALID,319,VALID,0,
2016-11-06, 16:31:04,VALID,918.669,VALID,0,VALID,65.5004,VALID,469.196,VALID,27.0914,VALID,320,VALID,0,
2016-11-06, 16:32:04,VALID,918.652,VALID,0,VALID,66.6973,VALID,581.901,VALID,27.0698,VALID,333,VALID,0,
2016-11-06, 16:33:04,VALID,918.671,VALID,0,VALID,66.5067,VALID,487.89,VALID,27.0503,VALID,324,VALID,0,
2016-11-06, 16:34:04,VALID,918.652,VALID,0,VALID,64.0901,VALID,486.816,VALID,27.1675,VALID,332,VALID,0,
2016-11-06, 16:35:04,VALID,918.63,VALID,0,VALID,64.2502,VALID,467.047,VALID,27.1305,VALID,332,VALID,0,
2016-11-06, 16:36:04,VALID,918.634,VALID,0,VALID,65.4013,VALID,703.632,VALID,27.0328,VALID,360,VALID,0,
2016-11-06, 16:37:04,VALID,918.626,VALID,0,VALID,68.3439,VALID,814.082,VALID,27.0719,VALID,351,VALID,0,
2016-11-06, 16:38:04,VALID,918.671,VALID,0,VALID,67.147,VALID,813.759,VALID,27.1479,VALID,2,VALID,0,
2016-11-06, 16:39:04,VALID,918.64,VALID,0,VALID,64.4331,VALID,441.583,VALID,27.3063,VALID,59,VALID,0.0632813,
2016-11-06, 16:40:04,VALID,918.635,VALID,0,VALID,61.2313,VALID,457.377,VALID,27.2847,VALID,136,VALID,0,
2016-11-06, 16:41:04,VALID,918.644,VALID,0,VALID,62.8703,VALID,565.033,VALID,27.3042,VALID,175,VALID,0,
2016-11-06, 16:42:04,VALID,918.667,VALID,0,VALID,61.7802,VALID,689.02,VALID,27.2065,VALID,155,VALID,0.446484,
2016-11-06, 16:43:04,VALID,918.648,VALID,0,VALID,59.638,VALID,637.341,VALID,27.1479,VALID,173,VALID,1.78242,
2016-11-06, 16:44:04,VALID,918.613,VALID,0,VALID,59.2416,VALID,607.15,VALID,27.1284,VALID,192,VALID,0.767578,
2016-11-06, 16:45:04,VALID,918.617,VALID,0,VALID,60.3241,VALID,865.009,VALID,27.1675,VALID,223,VALID,0,
2016-11-06, 16:46:04,VALID,918.613,VALID,0,VALID,60.0496,VALID,586.091,VALID,27.2456,VALID,179,VALID,0.491406,
2016-11-06, 16:47:04,VALID,918.577,VALID,0,VALID,58.6012,VALID,673.334,VALID,27.2261,VALID,227,VALID,0.260547,
2016-11-06, 16:48:04,VALID,918.568,VALID,0,VALID,61.5057,VALID,593.827,VALID,27.0503,VALID,183,VALID,0.0632813,
2016-11-06, 16:49:04,VALID,918.531,VALID,0,VALID,59.7905,VALID,576.422,VALID,27.15,VALID,200,VALID,1.17109,
2016-11-06, 16:50:04,VALID,918.515,VALID,0,VALID,62.3443,VALID,473.601,VALID,27.1109,VALID,187,VALID,2.05391,
2016-11-06, 16:51:04,VALID,918.503,VALID,0,VALID,60.7281,VALID,448.889,VALID,27.0719,VALID,185,VALID,2.24492,
2016-11-06, 16:52:04,VALID,918.462,VALID,0,VALID,60.7967,VALID,467.369,VALID,26.9351,VALID,169,VALID,1.89609,
2016-11-06, 16:53:04,VALID,918.468,VALID,0,VALID,63.2667,VALID,469.948,VALID,26.857,VALID,148,VALID,0.472656,
2016-11-06, 16:54:04,VALID,918.461,VALID,0,VALID,64.6771,VALID,713.194,VALID,26.8765,VALID,108,VALID,1.13984,
2016-11-06, 16:55:04,VALID,918.45,VALID,0,VALID,62.9923,VALID,481.659,VALID,26.8549,VALID,142,VALID,0.875,
2016-11-06, 16:56:04,VALID,918.426,VALID,0,VALID,66.0188,VALID,469.196,VALID,26.8159,VALID,109,VALID,2.45742,
2016-11-06, 16:57:04,VALID,918.456,VALID,0,VALID,64.7609,VALID,496.271,VALID,26.601,VALID,93,VALID,1.29961,
2016-11-06, 16:58:04,VALID,918.443,VALID,0,VALID,63.4573,VALID,474.245,VALID,26.3666,VALID,143,VALID,3.09492,
2016-11-06, 16:59:04,VALID,918.449,VALID,0,VALID,65.4547,VALID,457.484,VALID,26.2905,VALID,179,VALID,0.414453,
2016-11-06, 17:00:04,VALID,918.456,VALID,0,VALID,65.2183,VALID,457.592,VALID,26.4272,VALID,175,VALID,1.99414,
2016-11-06, 17:01:04,VALID,918.476,VALID,0,VALID,64.7228,VALID,475.212,VALID,26.3666,VALID,165,VALID,1.71289,
2016-11-06, 17:02:04,VALID,918.438,VALID,0,VALID,65.813,VALID,455.336,VALID,26.3296,VALID,151,VALID,2.3043,
2016-11-06, 17:03:04,VALID,918.447,VALID,0,VALID,64.0138,VALID,474.89,VALID,26.308,VALID,81,VALID,0.575391,
2016-11-06, 17:04:04,VALID,918.499,VALID,0,VALID,66.3085,VALID,476.287,VALID,26.3471,VALID,87,VALID,0.0921875,
2016-11-06, 17:05:04,VALID,918.506,VALID,0,VALID,66.6515,VALID,482.733,VALID,26.3276,VALID,132,VALID,0,
2016-11-06, 17:06:04,VALID,918.47,VALID,0,VALID,64.7152,VALID,471.559,VALID,26.306,VALID,111,VALID,0.203125,
2016-11-06, 17:07:04,VALID,918.496,VALID,0,VALID,64.7228,VALID,482.841,VALID,26.3862,VALID,133,VALID,2.20469,
2016-11-06, 17:08:04,VALID,918.483,VALID,0,VALID,64.8981,VALID,495.411,VALID,26.2885,VALID,138,VALID,1.91758,
2016-11-06, 17:09:04,VALID,918.475,VALID,0,VALID,64.6237,VALID,492.403,VALID,26.3862,VALID,177,VALID,1.18594,
2016-11-06, 17:10:04,VALID,918.493,VALID,0,VALID,64.1587,VALID,494.659,VALID,26.5424,VALID,207,VALID,0.583984,
2016-11-06, 17:11:04,VALID,918.486,VALID,0,VALID,63.8232,VALID,486.601,VALID,26.7963,VALID,153,VALID,0.0203125,
2016-11-06, 17:12:04,VALID,918.513,VALID,0,VALID,61.7268,VALID,480.584,VALID,26.9917,VALID,95,VALID,0.855859,
2016-11-06, 17:13:04,VALID,918.522,VALID,0,VALID,63.1981,VALID,493.047,VALID,26.8724,VALID,103,VALID,1.52383,
2016-11-06, 17:14:04,VALID,918.526,VALID,0,VALID,63.2057,VALID,498.312,VALID,26.7552,VALID,118,VALID,0.778906,
2016-11-06, 17:15:04,VALID,918.52,VALID,0,VALID,64.8448,VALID,504.436,VALID,26.8159,VALID,69,VALID,0,
2016-11-06, 17:16:04,VALID,918.536,VALID,0,VALID,63.0228,VALID,497.453,VALID,27.0893,VALID,148,VALID,0.189453,
2016-11-06, 17:17:04,VALID,918.511,VALID,0,VALID,62.9389,VALID,478.006,VALID,27.0893,VALID,153,VALID,0.127344,
2016-11-06, 17:18:04,VALID,918.537,VALID,0,VALID,61.1932,VALID,472.526,VALID,27.2847,VALID,107,VALID,1.71406,
2016-11-06, 17:19:04,VALID,918.518,VALID,0,VALID,61.2008,VALID,480.799,VALID,27.0112,VALID,142,VALID,2.05781,
2016-11-06, 17:20:04,VALID,918.5,VALID,0,VALID,59.8057,VALID,482.088,VALID,26.8724,VALID,178,VALID,2.36953,
2016-11-06, 17:21:04,VALID,918.506,VALID,0,VALID,61.3456,VALID,488.105,VALID,26.8549,VALID,152,VALID,1.28047,
2016-11-06, 17:22:04,VALID,918.5,VALID,0,VALID,63.1905,VALID,585.769,VALID,26.9526,VALID,160,VALID,1.61289,
2016-11-06, 17:23:04,VALID,918.469,VALID,0,VALID,61.1093,VALID,512.065,VALID,26.9721,VALID,126,VALID,2.09883,
2016-11-06, 17:24:04,VALID,918.479,VALID,0,VALID,60.4384,VALID,511.635,VALID,26.9505,VALID,118,VALID,2.10234,
2016-11-06, 17:25:04,VALID,918.463,VALID,0,VALID,63.3582,VALID,520.767,VALID,27.0091,VALID,75,VALID,1.27969,
2016-11-06, 17:26:04,VALID,918.497,VALID,0,VALID,59.333,VALID,544.942,VALID,27.0873,VALID,177,VALID,1.28125,
2016-11-06, 17:27:04,VALID,918.479,VALID,0,VALID,62.1385,VALID,577.604,VALID,27.0503,VALID,116,VALID,2.26445,
2016-11-06, 17:28:04,VALID,918.495,VALID,0,VALID,63.0075,VALID,509.701,VALID,27.0112,VALID,165,VALID,1.6043,
2016-11-06, 17:29:04,VALID,918.434,VALID,0,VALID,61.5362,VALID,617.142,VALID,27.0503,VALID,186,VALID,0.317187,
2016-11-06, 17:30:04,VALID,918.454,VALID,0,VALID,61.3075,VALID,491.543,VALID,27.187,VALID,154,VALID,0.606641,
2016-11-06, 17:31:04,VALID,918.42,VALID,0,VALID,58.8299,VALID,479.188,VALID,27.0503,VALID,158,VALID,1.58828,
2016-11-06, 17:32:04,VALID,918.436,VALID,0,VALID,59.6913,VALID,476.931,VALID,26.8354,VALID,159,VALID,2.14687,
2016-11-06, 17:33:04,VALID,918.421,VALID,0,VALID,62.3214,VALID,478.435,VALID,26.8333,VALID,179,VALID,1.28437,
2016-11-06, 17:34:04,VALID,918.401,VALID,0,VALID,60.4232,VALID,480.477,VALID,26.8333,VALID,179,VALID,1.70156,
2016-11-06, 17:35:04,VALID,918.415,VALID,0,VALID,59.92,VALID,620.043,VALID,27.0503,VALID,193,VALID,0.372656,
2016-11-06, 17:36:04,VALID,918.353,VALID,0,VALID,62.2604,VALID,513.784,VALID,27.1675,VALID,142,VALID,1.23672,
2016-11-06, 17:37:04,VALID,918.388,VALID,0,VALID,59.1577,VALID,505.296,VALID,27.2065,VALID,197,VALID,1.32539,
2016-11-06, 17:38:04,VALID,918.407,VALID,0,VALID,60.042,VALID,494.767,VALID,27.187,VALID,200,VALID,0.301562,
2016-11-06, 17:39:04,VALID,918.379,VALID,0,VALID,60.5528,VALID,495.948,VALID,27.3042,VALID,174,VALID,0.213281,
2016-11-06, 17:40:04,VALID,918.383,VALID,0,VALID,61.4295,VALID,458.774,VALID,27.441,VALID,157,VALID,2.25703,
2016-11-06, 17:41:04,VALID,918.374,VALID,0,VALID,58.586,VALID,444.914,VALID,27.2261,VALID,151,VALID,1.54023,
2016-11-06, 17:42:04,VALID,918.395,VALID,0,VALID,60.4766,VALID,443.947,VALID,27.1479,VALID,152,VALID,0.486328,
2016-11-06, 17:43:04,VALID,918.389,VALID,0,VALID,57.4806,VALID,425.789,VALID,27.2261,VALID,138,VALID,1.96094,
2016-11-06, 17:44:04,VALID,918.371,VALID,0,VALID,60.1335,VALID,424.393,VALID,27.0893,VALID,98,VALID,2.65703,
2016-11-06, 17:45:04,VALID,918.375,VALID,0,VALID,60.1411,VALID,414.615,VALID,27.0112,VALID,142,VALID,1.74141,
2016-11-06, 17:46:04,VALID,918.324,VALID,0,VALID,59.7295,VALID,413.111,VALID,26.9526,VALID,136,VALID,2.24219,
2016-11-06, 17:47:04,VALID,918.325,VALID,0,VALID,57.9456,VALID,414.186,VALID,26.894,VALID,135,VALID,1.75508,
2016-11-06, 17:48:04,VALID,918.319,VALID,0,VALID,58.7537,VALID,417.301,VALID,26.7963,VALID,142,VALID,2.7957,
2016-11-06, 17:49:04,VALID,918.295,VALID,0,VALID,59.9124,VALID,421.814,VALID,26.6987,VALID,150,VALID,2.2918,
2016-11-06, 17:50:04,VALID,918.266,VALID,0,VALID,61.9403,VALID,427.186,VALID,26.6596,VALID,149,VALID,1.53086,
2016-11-06, 17:51:04,VALID,918.261,VALID,0,VALID,60.1183,VALID,436.533,VALID,26.8159,VALID,129,VALID,1.96523,
2016-11-06, 17:52:04,VALID,918.237,VALID,0,VALID,57.4196,VALID,444.162,VALID,26.7162,VALID,131,VALID,2.18086,
2016-11-06, 17:53:04,VALID,918.224,VALID,0,VALID,59.4474,VALID,451.683,VALID,26.7768,VALID,130,VALID,1.17734,
2016-11-06, 17:54:04,VALID,918.207,VALID,0,VALID,58.8375,VALID,469.625,VALID,26.7357,VALID,153,VALID,2.17773,
2016-11-06, 17:55:04,VALID,918.25,VALID,0,VALID,61.5057,VALID,523.561,VALID,26.7963,VALID,126,VALID,1.41211,